Retour au catalogue

STARLINK-31959

ActifCommunicationsVLEO
NORAD 59925·PAYLOAD·🇺🇸 United States

Lancé Jun 1, 2024 depuis Cape Canaveral Space Force Station

Loading…

Prochains Passages (prochaines 24 heures)

TLE

FraisSource: CelesTrak SupGP

Époque: Sep 14, 2026, 22:35 UTC

1 59925C 24106D   26257.94145833 -.00024040  00000+0 -87081-3 0  2577
2 59925  43.0038 339.8898 0001868 273.4630 310.6225 15.27586142    17

Suivez STARLINK-31959 en temps réel avec AllMySat

Download on the App Store